Location: Asheville, NC
(35.6000°N, 82.5500°W)
Time: 13:54:00
(UTC-04:00)

NUDT-PHONESAT - Pass Details

Date: 10 March 2018
Orbit: 492 x 511 km, 97.4° (Epoch: 18 June)

Event Time Altitude Azimuth Distance (km) Brightness Sun altitude
Rises 05:59:38 0° 30° (NNE) 2,608 ? -10.6°
Reaches altitude 10° 06:02:13 10° 49° (NE) 1,723 ? -10.1°
Maximum altitude 06:04:52 18° 95° (E) 1,278 ? -9.6°
Drops below altitude 10° 06:07:31 10° 141° (SE) 1,721 ? -9.0°
Sets 06:10:05 0° 160° (SSE) 2,604 ? -8.5°
